Regional Weather Roundup
Issued by NWS Boston, MA

Current Version | Previous Version | Text Only | Print | Product List | Glossary Off
Versions: 1 2 3 4 5 6 7 8 9 10 11 12 13 14 15 16 17 18 19 20 21 22 23 24 25 26 27 28
000 ASUS41 KBOX 191710 RWRBOX REGIONAL WEATHER ROUNDUP NATIONAL WEATHER SERVICE TAUNTON MA 1200 PM EST SUN NOV 19 2017 NOTE: "FAIR" INDICATES FEW OR NO CLOUDS BELOW 12,000 FEET WITH NO SIGNIFICANT WEATHER AND/OR OBSTRUCTIONS TO VISIBILITY. MAZALL-191800- EASTERN MASSACHUSETTS CITY SKY/WX TMP DP RH WIND PRES REMARKS BOSTON LGT RAIN 50 42 74 W30G43 29.17R BEVERLY LGT RAIN 50 45 83 W18G38 29.14R LAWRENCE CLOUDY 51 42 71 W22G33 29.17R BEDFORD CLOUDY 47 40 76 W16G24 29.19R BLUE HILL NOT AVBL NORWOOD LGT RAIN 53 47 79 W17G31 29.19R MARSHFIELD CLOUDY 61 57 88 SW12G23 29.14F PLYMOUTH CLOUDY 60 53 77 SW15G31 29.17S TAUNTON PTSUNNY 60 54 80 SW12G21 29.16F NEW BEDFORD MOSUNNY 59 51 75 SW18G26 29.18F $$ MAZALL-191800- CAPE COD AND THE ISLANDS CITY SKY/WX TMP DP RH WIND PRES REMARKS FALMOUTH CLOUDY 57 54 88 SW23G36 29.20S HYANNIS CLOUDY 59 55 87 SW28G36 29.18F CHATHAM CLOUDY 57 57 100 SW16G32 29.21F FOG PROVINCETOWN PTSUNNY 57 55 93 SW21G29 29.16F NANTUCKET CLOUDY 59 57 93 SW31G37 29.24F FOG MARTHAS VNYRD PTSUNNY 59 53 80 SW21G37 29.21F $$ MAZALL-191800- CENTRAL AND WESTERN MASSACHUSETTS CITY SKY/WX TMP DP RH WIND PRES REMARKS WORCESTER MOSUNNY 43 32 65 W35G47 29.22R WCI 32 FITCHBURG MOSUNNY 49 37 63 W22G39 29.22R ORANGE CLOUDY 43 32 65 W16G24 29.29R SPRINGFIELD PTSUNNY 45 30 56 W32G41 29.31R WESTFIELD CLOUDY 46 33 60 W15G35 29.34R NORTH ADAMS CLOUDY 38 28 67 W13G33 29.38R WCI 30 PITTSFIELD CLOUDY 37 28 70 W23G44 29.34R WCI 26 $$ RIZALL-191800- RHODE ISLAND CITY SKY/WX TMP DP RH WIND PRES REMARKS PROVIDENCE CLOUDY 54 46 74 W25G38 29.24R NEWPORT PTSUNNY 57 48 72 W23G36 29.22R BLOCK ISLAND MOSUNNY 54 42 64 W31G45 29.28R SMITHFIELD CLOUDY 47 37 68 NW28G39 29.24R WESTERLY CLOUDY 55 44 66 W15G26 29.28R $$ CTZALL-191800- CONNECTICUT CITY SKY/WX TMP DP RH WIND PRES REMARKS BRADLEY INTL PTSUNNY 48 31 51 NW15G37 29.35R HARTFORD PTSUNNY 52 35 52 NW16G24 29.34R BRIDGEPORT SUNNY 50 31 48 W26G45 29.39R DANBURY MOSUNNY 47 31 53 W25G39 29.42R GROTON CLOUDY 54 39 57 W20G37 29.29R NEW HAVEN MOSUNNY 51 34 52 W15G25 29.37R CHESTER CLOUDY 52 36 54 W17G29 29.33R MERIDEN PTSUNNY 50 34 54 W16G30 29.36R WILLIMANTIC PTSUNNY 51 34 52 W21G30 29.31R OXFORD PTSUNNY 47 32 56 W21G36 29.37R $$ MEZ002-015-021-024-NHZ003-005-008-011-012-014-VTZ005-008-191800- NORTHERN NEW ENGLAND CITY SKY/WX TMP DP RH WIND PRES REMARKS PORTLAND ME LGT RAIN 55 53 93 S18G28 29.04F BANGOR ME LGT RAIN 56 54 93 S16 29.03F CONCORD NH CLOUDY 48 39 71 W18G32 29.16R MANCHESTER NH PTSUNNY 47 38 71 W15G22 29.16R NASHUA NH CLOUDY 46 37 71 W23G32 29.19R PORTSMOUTH NH LGT RAIN 57 49 75 SW15G23 29.06S JAFFREY NH CLOUDY 42 34 73 W15G29 29.21R KEENE NH CLOUDY 45 33 63 SW12G17 29.25R BURLINGTON VT FLURRIES 36 26 67 NW18G33 29.33R WCI 26 MT. WASHINGTON SLEET SH 30 30 100 W64G70 N/A VSB 0 WCI 10 $$ NYZ052-076-191800- EASTERN NEW YORK CITY SKY/WX TMP DP RH WIND PRES REMARKS ALBANY CLOUDY 40 26 57 W32G41 29.45R WCI 28 NEW YORK CITY PTSUNNY 51 31 46 NW29G40 29.48R $$ ANZALL-191800- MARINE OBSERVATIONS STATION/POSITION TIME TEMP WIND PRES VSBY WAVE AIR SEA DIR/SP/G HT/PER (UTC) (F) (DEG/KT/KT) (MB) (MI) (FT/S) BOSTON BUOY 1650 57 51 210/ 16/ 19 985.0F 3/ 4 BUZZARDS BAY 1600 58 230/ 30/ 33 988.9S NANTUCKET SOUND 1650 57 51 230/ 23/ 27 988.8F 4/ 4 MASS BAY-STELLWA 1604 55 50 190/ 16/ 17 984.9F 4/ 6 ISLE OF SHOALS 1600 54 190/ 21/ 22 984.8F S OF BLOCK IS NOT AVBL $$ ......................KEY......................... SKY/WX - SKY CONDITION/PRESENT WEATHER TMP - TEMPERATURE IN FAHRENHEIT DWPT - DEWPOINT IN FAHRENHEIT RH - RELATIVE HUMIDITY IN PERCENT WIND - DIRECTION AND SPEED IN MPH PRES - MEAN SEA LEVEL PRESSURE IN INCHES OF HG WCI - WIND CHILL INDEX VSB - VISIBILITY IN MILES HX - HEAT INDEX TC - TEMPERATURE IN CELSIUS VRB - VARIABLE WIND DIRECTION N/A - NOT AVAILABLE

USA.gov is the U.S. government's official web portal to all federal, state and local government web resources and services.